Location: Catstown
(52.4386°N, 7.2633°W)
Time: 21:58:41
(UTC+00:00)

Lacrosse 5 rocket - Pass Details

Date: 18 September 2020
Orbit: 461 x 635 km, 57.0° (Epoch: 20 October)

Event Time Altitude Azimuth Distance (km) Brightness Sun altitude
Rises 23:03:05 0° 296° (WNW) 2,853 5.6 -33.6°
Reaches altitude 10° 23:05:20 10° 298° (WNW) 1,970 4.7 -33.8°
Enters shadow 23:06:27 18° 299° (WNW) 1,544 4.0 -33.8°
